TimeEDT,TemperatureF,Dew PointF,Humidity,Sea Level PressureIn,VisibilityMPH,Wind Direction,Wind SpeedMPH,Gust SpeedMPH,PrecipitationIn,Events,Conditions,WindDirDegrees,DateUTC
12:28 AM,57.2,57.2,100,29.79,1.5,ENE,6.9,-,N/A,Rain,Light Rain,60,2013-06-28 04:28:00
12:58 AM,56.8,56.7,99,29.79,2.0,NE,8.1,-,0.00,,Overcast,40,2013-06-28 04:58:00
1:43 AM,55.4,55.4,100,29.76,3.0,NE,10.4,18.4,N/A,,Overcast,50,2013-06-28 05:43:00
1:58 AM,55.9,55.6,99,29.77,1.5,NE,8.1,-,0.01,Rain,Light Rain,50,2013-06-28 05:58:00
2:58 AM,55.6,55.2,99,29.74,1.0,NE,11.5,-,0.01,Rain,Light Rain,50,2013-06-28 06:58:00
3:28 AM,55.4,55.4,100,29.72,1.5,NE,10.4,-,N/A,Rain,Light Rain,50,2013-06-28 07:28:00
3:58 AM,55.2,54.9,99,29.71,1.5,NE,10.4,-,0.12,Rain,Rain,50,2013-06-28 07:58:00
4:13 AM,55.4,55.4,100,29.68,5.0,ENE,12.7,20.7,N/A,Rain,Light Rain,60,2013-06-28 08:13:00
4:58 AM,55.9,55.6,99,29.68,3.0,ENE,10.4,17.3,0.08,Rain,Light Rain,60,2013-06-28 08:58:00
5:15 AM,57.2,55.4,94,29.67,1.2,NE,10.4,-,N/A,,Overcast,50,2013-06-28 09:15:00
5:58 AM,56.8,56.5,99,29.68,1.2,NE,8.1,-,0.00,Rain,Light Rain,40,2013-06-28 09:58:00
6:58 AM,57.2,56.8,99,29.65,1.2,NE,8.1,-,0.01,Rain,Light Rain,40,2013-06-28 10:58:00
7:43 AM,57.2,57.2,100,29.63,1.2,NNE,6.9,-,N/A,,Overcast,30,2013-06-28 11:43:00
7:58 AM,57.9,57.6,99,29.64,1.2,NE,6.9,-,0.01,,Overcast,50,2013-06-28 11:58:00
8:28 AM,59.0,59.0,100,29.60,0.8,NE,8.1,-,N/A,,Overcast,40,2013-06-28 12:28:00
8:43 AM,59.0,59.0,100,29.61,0.5,Variable,4.6,-,N/A,Fog,Light Drizzle,0,2013-06-28 12:43:00
8:58 AM,59.2,58.8,99,29.61,1.0,NE,6.9,-,0.02,Rain,Light Rain,40,2013-06-28 12:58:00
9:28 AM,59.0,59.0,100,29.58,1.2,NE,6.9,-,N/A,Rain,Rain,50,2013-06-28 13:28:00
9:58 AM,60.6,60.3,99,29.58,2.0,NE,5.8,-,0.13,,Overcast,40,2013-06-28 13:58:00
10:58 AM,63.0,62.8,99,29.56,1.5,North,4.6,-,N/A,,Overcast,350,2013-06-28 14:58:00
11:58 AM,66.2,65.8,99,29.56,1.5,Variable,2.3,-,N/A,,Overcast,0,2013-06-28 15:58:00
12:40 PM,69.8,69.8,100,29.53,3.0,Calm,Calm,-,N/A,,Overcast,0,2013-06-28 16:40:00
12:58 PM,73.2,72.1,96,29.53,4.0,South,5.8,-,N/A,,Overcast,180,2013-06-28 16:58:00
1:43 PM,77.0,73.4,89,29.51,5.0,SSE,10.4,-,N/A,,Overcast,160,2013-06-28 17:43:00
1:58 PM,77.9,72.3,83,29.52,5.0,Variable,4.6,-,N/A,,Mostly Cloudy,0,2013-06-28 17:58:00
2:37 PM,78.8,71.6,78,29.50,7.0,SSE,12.7,-,N/A,,Mostly Cloudy,150,2013-06-28 18:37:00
2:58 PM,79.0,71.4,78,29.50,7.0,SSE,12.7,-,N/A,,Mostly Cloudy,150,2013-06-28 18:58:00
3:58 PM,79.7,71.4,76,29.49,7.0,NW,11.5,-,N/A,,Mostly Cloudy,320,2013-06-28 19:58:00
4:43 PM,73.4,69.8,88,29.49,7.0,NNW,12.7,21.9,N/A,,Overcast,330,2013-06-28 20:43:00
4:58 PM,71.8,68.5,89,29.50,7.0,North,10.4,-,0.00,Rain,Light Rain Showers,360,2013-06-28 20:58:00
5:30 PM,73.4,71.6,94,29.49,7.0,North,4.6,-,N/A,,Overcast,360,2013-06-28 21:30:00
5:58 PM,73.8,71.1,91,29.50,7.0,NW,10.4,-,0.01,,Mostly Cloudy,320,2013-06-28 21:58:00
6:58 PM,71.2,69.6,95,29.52,7.0,NNW,5.8,-,N/A,,Mostly Cloudy,330,2013-06-28 22:58:00
7:28 PM,69.8,69.8,100,29.50,6.0,North,3.5,-,N/A,,Mostly Cloudy,350,2013-06-28 23:28:00
7:51 PM,69.8,68.0,94,29.49,5.0,Calm,Calm,-,N/A,,Mostly Cloudy,0,2013-06-28 23:51:00
7:58 PM,70.0,68.0,93,29.52,3.0,West,4.6,-,N/A,,Mostly Cloudy,280,2013-06-28 23:58:00
8:28 PM,68.0,66.2,94,29.52,2.0,WNW,5.8,-,N/A,,Mostly Cloudy,300,2013-06-29 00:28:00
8:35 PM,66.2,66.2,100,29.51,1.2,NW,4.6,-,N/A,,Overcast,320,2013-06-29 00:35:00
8:43 PM,66.2,66.2,100,29.51,1.0,NNW,5.8,-,N/A,,Overcast,330,2013-06-29 00:43:00
8:58 PM,66.7,66.4,99,29.53,0.5,NW,5.8,-,N/A,Fog,Fog,320,2013-06-29 00:58:00
9:58 PM,66.4,66.0,99,29.56,0.8,North,8.1,-,N/A,,Overcast,350,2013-06-29 01:58:00
10:13 PM,66.2,66.2,100,29.55,1.0,NNW,4.6,-,N/A,,Overcast,340,2013-06-29 02:13:00
10:28 PM,66.2,66.2,100,29.55,2.0,NE,4.6,-,N/A,,Overcast,50,2013-06-29 02:28:00
10:58 PM,66.7,66.4,99,29.56,2.0,Calm,Calm,-,N/A,,Overcast,0,2013-06-29 02:58:00
11:13 PM,68.0,66.2,94,29.54,3.0,SE,2.3,-,N/A,,Overcast,140,2013-06-29 03:13:00
11:58 PM,68.2,67.8,99,29.55,5.0,SSE,8.1,-,N/A,,Overcast,150,2013-06-29 03:58:00